星链-11638 (STARLINK-11638)

导读

STARLINK-11638是美国SpaceX公司星链星座的成员,于2025年3月15日发射升空,部署在近地轨道。作为星链计划的一部分,该卫星承担全球宽带互联网接入任务,可为网络基础设施匮乏地区提供高速网络服务,支撑星链星座实现全球覆盖的通信能力,是SpaceX推进四万颗低轨卫星组网部署的最新节点之一。

基本信息
目录编号:
63269
目录名称:
STARLINK-11638
国际标识:
2025-053E
轨道中心:
EARTH
卫星名称:
星链-11638
卫星全名:
星链-11638 (STARLINK-11638)
卫星状态:
在轨 (已飞行456 天)
发射日期:
2025-03-15 UTC
国别 :
美国 (US)
星等 :
--
轨道信息
数据来源 国际轨道数据
星历时间: 2026-06-14T20:50:06+0800
4小时前
查看轨道信息
半长轴: 6734.555km
偏心率: 0.0001688
轨道倾角: 42.997°
近地点辐角 193.170°
升交点赤经 248.218°
平近点角 166.912°
近地点: 355.281km
远地点: 357.555km
周期: 91.669分钟
每日圈数: 15.70867
详细信息
固有亮度:
5
最大亮度:
2.5
卫星平台:
Starlink V1.0
覆盖范围:
全球
运营商:
太空探索技术公司
运营商所在国:
美国
制造商(研发单位):
太空探索技术公司
制造商所在国:
美国
使用方式:
暂无
卫星简介
Starlink 计划是 SpaceX 推出的全球卫星互联网项目,通过发射低轨道卫星,为全球尤其是偏远地区提供高速、低延迟的互联网服务。自 2019 年起,Starlink 已部署数千颗卫星,旨在缩小全球数字鸿沟,推动互联网普及。该项目还为军事、航空等行业提供通信支持,带来广泛经济效益。
2D轨道图
3D轨道图
轨道高度分析图
轨道倾角分析图
轨道综合分析图
查看轨道综合分析图